This is the latest recevied weather packets stored in our database for station/object DL7AND-1. If no packets are shown the sender has not sent any weather packets the latest 10 day(s).
| Time | Temp. | Humidity | Pressure | Rain* | Wind** | Luminosity | Snow |
|---|---|---|---|---|---|---|---|
| 1777475204 | 13.89° C | - | 1019.9 hPa | 0 mm | - | - | - |
| 1777474340 | 13.89° C | - | 1019.9 hPa | 0 mm | - | - | - |
| 1777472804 | 13.33° C | - | 1019.8 hPa | 0 mm | - | - | - |
| 1777470404 | 13.33° C | - | 1020 hPa | 0 mm | - | - | - |
| 1777464740 | 12.78° C | - | 1020.4 hPa | 0 mm | - | - | - |
| 1777463458 | 12.22° C | - | 1020.6 hPa | 0 mm | - | - | - |
| 1777460518 | 12.22° C | - | 1020.6 hPa | 0 mm | - | - | - |
| 1777459604 | 12.22° C | - | 1020.8 hPa | 0 mm | - | - | - |
| 1777458712 | 12.22° C | - | 1020.9 hPa | 0 mm | - | - | - |
| 1777457204 | 12.22° C | - | 1020.7 hPa | 0 mm | - | - | - |
| 1777456292 | 12.22° C | - | 1020.5 hPa | 0 mm | - | - | - |
| 1777453604 | 12.22° C | - | 1021 hPa | 0 mm | - | - | - |
| 1777452692 | 12.22° C | - | 1021 hPa | 0 mm | - | - | - |
| 1777449718 | 10.56° C | - | 1020.9 hPa | 0 mm | - | - | - |
| 1777446692 | 10.56° C | - | 1020.7 hPa | 0 mm | - | - | - |
| 1777439492 | 11.11° C | - | 1019.5 hPa | 0 mm | - | - | - |
| 1777438292 | 10° C | - | 1019.2 hPa | 0 mm | - | - | - |
| 1777432292 | 6.11° C | - | 1018.4 hPa | 0 mm | - | - | - |
| 1777431132 | 6.11° C | - | 1018.4 hPa | 0 mm | - | - | - |
| 1777424468 | 7.22° C | - | 1018 hPa | 0 mm | - | - | - |
* Rain latest hour (hover to see other rain measurements)
** Current wind speed in m/s (hover to see current wind gust speed)